Regional Weather Roundup
Issued by NWS Albany, NY

Home | Current Version | Previous Version | Text Only | Print | Product List | Glossary On
Versions: 1 2 3 4 5 6 7 8 9 10 11 12 13 14 15 16 17 18 19 20 21 22 23 24 25 26 27 28 29 30 31 32 33 34 35 36 37 38 39 40 41 42 43 44 45 46 47 48 49 50
000
ASUS41 KALY 241010
RWRALY

NEW YORK STATE HOURLY WEATHER ROUNDUP
NATIONAL WEATHER SERVICE ALBANY NY
600 AM EDT SAT JUN 24 2017

NOTE: "FAIR" INDICATES FEW OR NO CLOUDS BELOW 12,000 FEET WITH NO
SIGNIFICANT WEATHER AND/OR NO OBSTRUCTIONS TO VISIBILITY.

NYZ032-033-038>043-046>054-057>066-NYZ062>081-082-084-241100-
EAST


CITY           SKY/WX    TMP DP  RH WIND       PRES   REMARKS
ALBANY         CLOUDY    71  68  90 S3        29.55R
GLENS FALLS    CLOUDY    71  68  90 S6        29.53R
POUGHKEEPSIE   CLOUDY    72  70  93 VRB3      29.57R
NEWBURGH       RAIN      72  72 100 SW5       29.60F FOG
MONTGOMERY     LGT RAIN  72  71  97 SW5       29.58S
ISLIP          CLOUDY    71  69  93 W13G18    29.62R
NEW YORK CITY  LGT RAIN  74  72  93 CALM      29.58F
CENTRAL PARK   RAIN      73  71  93 CALM      29.62F FOG
$$

NYZ005>009-017-018-044>046-055-056-241100-
CENTRAL


CITY           SKY/WX    TMP DP  RH WIND       PRES   REMARKS
FULTON         CLOUDY    65  63  93 W8        29.62R
SYRACUSE       CLOUDY    65  65 100 W10       29.61R
ROME           LGT RAIN  66  65  96 W9        29.60R
ELMIRA         NOT AVBL
BINGHAMTON     NOT AVBL
MONTICELLO     MOCLDY    70  70 100 SW3       29.63F
$$

NYZ026>034-041>043-087-241100-
NORTH


CITY           SKY/WX    TMP DP  RH WIND       PRES   REMARKS
WATERTOWN      CLOUDY    65  65 100 SW3       29.57R
FORT DRUM      NOT AVBL
OGDENSBURG     FAIR      64  62  93 NW7       29.56R
MASSENA        PTCLDY    64  60  87 W8        29.54R
SARANAC LAKE   CLOUDY    65  65 100 W3        29.54R
PLATTSBURGH    LGT RAIN  69  67  93 W3        29.48R
$$

NYZ001>004-010>016-019>021-085-241100-
WEST


CITY           SKY/WX    TMP DP  RH WIND       PRES   REMARKS
NIAGARA FALLS  CLEAR     62  53  72 W5        29.68R
BUFFALO        PTCLDY    63  54  72 SW6       29.69R
DUNKIRK        PTCLDY    64  63  96 SW6       29.72R
JAMESTOWN      PTCLDY    61  57  88 W7        29.76R
WELLSVILLE     CLOUDY    62  57  83 W9        29.76R
ROCHESTER      CLOUDY    64  61  90 W7        29.66R
PENN YAN       CLOUDY    64  58  80 S7        29.67R
$$

             KEY
       WCI = WIND CHILL INDEX
       VSB = VISIBILITY
       HX  = HEAT INDEX
$$



USA.gov is the U.S. government's official web portal to all federal, state and local government web resources and services.